Weather History for Omaha, NE

Change the Weather History Date:

Wednesday, September 3, 2014

  Actual Average Record
Temperature  
Mean Temperature 76 °F 71 °F  
Max Temperature 87 °F 82 °F 101 °F (1939)
Min Temperature 65 °F 59 °F 34 °F (1974)
Degree Days  
Heating Degree Days 0 1  
Month to date heating degree days 0 3  
Since 1 July heating degree days 4 11  
Cooling Degree Days 11 7  
Month to date cooling degree days 23 21  
Year to date cooling degree days 1046 1001  
Growing Degree Days 26 (Base 50)    
Moisture  
Dew Point 67 °F    
Average Humidity 69    
Maximum Humidity 87    
Minimum Humidity 51    
Precipitation  
Precipitation 0.00 in 0.10 in 2.01 in (1968)
Month to date precipitation T 0.30  
Year to date precipitation 28.65 23.41  
Snow  
Snow 0.00 in 0.00 in - ()
Month to date snowfall 0.0 0.0  
Since 1 July snowfall 0.0 0.0  
Snow Depth 0.00 in    
Sea Level Pressure  
Sea Level Pressure 29.79 in    
Wind  
Wind Speed 14 mph (SSE)    
Max Wind Speed 29 mph    
Max Gust Speed 37 mph    
Visibility 10 miles    
Events      
T = Trace of Precipitation, MM = Missing Value Source: NWS Daily Summary

Daily Weather History Graph

Daily Weather History Graph

Search for Another Location

Airport:

Trip Planner

Search our weather history database for the weather conditions in past years. The results will help you decide how hot, cold, wet, or windy it might be!

Date:

Astronomy

Sep. 03, 2014 Rise Set
Actual Time 6:51 AM CDT 7:53 PM CDT
Civil Twilight 6:23 AM CDT 8:21 PM CDT
Nautical Twilight 5:50 AM CDT 8:54 PM CDT
Astronomical Twilight 5:14 AM CDT 9:29 PM CDT
Moon 3:38 PM CDT (9/3) 12:45 AM CDT (9/3)
Length of Visible Light 13h 57m
Length of Day
13h 01m
Waxing Gibbous, 64% of the Moon is Illuminated
Sep 3
Waxing Gibbous
Sep 8
Full
Sep 15
Last Quarter
Sep 24
New
Oct 1
First Quarter

Hourly Weather History & Observations

Time (CDT) Temp. Heat Index Dew Point Humidity Pressure Visibility Wind Dir Wind Speed Gust Speed Precip Events Conditions
12:52 AM 66.9 °F - 57.0 °F 70% 29.91 in 10.0 mi SSE 4.6 mph - N/A   Clear
1:52 AM 66.0 °F - 57.9 °F 75% 29.90 in 10.0 mi SSE 5.8 mph - N/A   Clear
2:52 AM 66.9 °F - 60.1 °F 79% 29.90 in 10.0 mi South 8.1 mph - N/A   Partly Cloudy
3:52 AM 68.0 °F - 62.1 °F 81% 29.89 in 10.0 mi SSE 10.4 mph - N/A   Partly Cloudy
4:52 AM 69.1 °F - 64.0 °F 84% 29.86 in 10.0 mi SSE 12.7 mph - N/A   Partly Cloudy
5:52 AM 68.0 °F - 64.0 °F 87% 29.86 in 10.0 mi SSE 9.2 mph - N/A   Partly Cloudy
6:52 AM 68.0 °F - 64.0 °F 87% 29.85 in 10.0 mi SSE 4.6 mph - N/A   Partly Cloudy
7:52 AM 71.1 °F - 66.0 °F 84% 29.85 in 10.0 mi South 12.7 mph - N/A   Mostly Cloudy
8:52 AM 71.1 °F - 66.0 °F 84% 29.85 in 10.0 mi SSE 13.8 mph - N/A   Overcast
9:52 AM 73.0 °F - 66.9 °F 81% 29.85 in 9.0 mi South 12.7 mph - N/A   Overcast
10:52 AM 75.0 °F - 68.0 °F 79% 29.84 in 10.0 mi South 13.8 mph - N/A   Overcast
10:59 AM 75.0 °F - 68.0 °F 79% 29.86 in 10.0 mi South 16.1 mph - N/A   Overcast
11:52 AM 78.1 °F - 69.1 °F 74% 29.81 in 10.0 mi South 17.3 mph - N/A   Overcast
12:52 PM 80.1 °F 82.7 °F 68.0 °F 67% 29.79 in 10.0 mi South 15.0 mph 28.8 mph N/A   Overcast
1:52 PM 84.0 °F 87.0 °F 68.0 °F 58% 29.76 in 10.0 mi South 24.2 mph 31.1 mph N/A   Scattered Clouds
2:52 PM 84.9 °F 87.1 °F 66.0 °F 53% 29.74 in 10.0 mi South 20.7 mph 32.2 mph N/A   Scattered Clouds
3:52 PM 84.9 °F 87.6 °F 66.9 °F 55% 29.72 in 10.0 mi SSE 17.3 mph - N/A   Scattered Clouds
4:52 PM 86.0 °F 88.8 °F 66.9 °F 53% 29.73 in 10.0 mi South 13.8 mph - N/A   Mostly Cloudy
5:52 PM 84.9 °F 88.8 °F 69.1 °F 59% 29.70 in 10.0 mi SSE 13.8 mph - N/A   Mostly Cloudy
6:52 PM 84.9 °F 90.1 °F 71.1 °F 63% 29.69 in 10.0 mi SSE 17.3 mph - N/A   Mostly Cloudy
7:52 PM 84.0 °F 89.0 °F 71.1 °F 65% 29.69 in 10.0 mi South 17.3 mph - N/A   Scattered Clouds
8:52 PM 81.0 °F 85.2 °F 72.0 °F 74% 29.69 in 10.0 mi SSE 18.4 mph - N/A   Partly Cloudy
9:52 PM 80.1 °F 83.8 °F 72.0 °F 76% 29.70 in 10.0 mi SSE 16.1 mph - N/A   Clear
10:52 PM 79.0 °F - 72.0 °F 79% 29.69 in 10.0 mi SSE 13.8 mph - N/A   Clear
11:52 PM 80.1 °F 84.2 °F 73.0 °F 79% 29.68 in 10.0 mi South 15.0 mph - N/A   Clear